Location: Edinburgh
(55.9500°N, 3.1600°W)
Time: 19:46:07
(UTC+01:00)

ZACube-1 - Visible Passes

Search period start: 22 October 2019 00:00
Search period end: 31 October 2019 23:00
Orbit: 584 x 666 km, 97.6° (Epoch: 22 October)

Date Brightness Start Highest point End Pass type
(mag) Time Alt. Az. Time Alt. Az. Time Alt. Az.
22 Oct ? 06:55:32 10° NNE 06:59:28 28° E 07:03:25 10° SSE visible
22 Oct ? 19:35:18 10° SSW 19:38:51 25° W 19:42:31 10° NW visible
23 Oct ? 07:14:21 10° NNE 07:18:37 40° E 07:22:56 10° SSE visible
23 Oct ? 19:55:06 10° SW 19:58:04 18° W 20:01:07 10° NW visible
24 Oct ? 18:35:59 10° S 18:40:16 78° WSW 18:44:42 10° NNW visible
24 Oct ? 20:15:23 10° WSW 20:17:21 13° W 20:19:19 10° NW visible
25 Oct ? 06:17:16 10° NE 06:19:49 15° E 06:22:20 10° ESE visible
25 Oct ? 18:55:08 10° S 18:59:19 53° W 19:03:40 10° NNW visible
26 Oct ? 06:35:39 10° NE 06:39:04 20° E 06:42:29 10° SE visible
26 Oct ? 19:14:26 10° SSW 19:18:26 37° W 19:22:34 10° NNW visible
27 Oct ? 05:54:18 10° NNE 05:58:16 28° E 06:02:15 10° SSE visible
27 Oct ? 18:33:58 10° SSW 18:37:36 26° W 18:41:21 10° NW visible
28 Oct ? 06:13:06 10° NNE 06:17:25 40° E 06:21:45 10° SSE visible
28 Oct ? 17:15:42 10° SSE 17:20:02 73° ENE 17:24:29 10° NNW visible
28 Oct ? 18:53:45 10° SW 18:56:49 19° W 18:59:58 10° NW visible
29 Oct ? 06:32:00 10° NNE 06:36:32 57° E 06:41:03 10° S visible
29 Oct ? 17:34:41 10° SSE 17:39:01 79° WSW 17:43:31 10° NNW visible
29 Oct ? 19:14:00 10° WSW 19:16:06 13° W 19:18:14 10° NW visible
30 Oct ? 05:16:02 10° NE 05:18:36 15° E 05:21:09 10° ESE visible
30 Oct ? 17:53:49 10° S 17:58:05 54° W 18:02:29 10° NNW visible
31 Oct ? 05:34:25 10° NE 05:37:52 20° E 05:41:17 10° SE visible
31 Oct ? 18:13:07 10° SSW 18:17:12 38° W 18:21:24 10° NNW visible
